Location: *
(12.5665°N, 8.3471°E)
Time: 22:00:57
(UTC+00:00)

CZ-2C R/B - Pass Details

Date: 23 September 2019
Orbit: 669 x 784 km, 98.1° (Epoch: 15 October)

Event Time Altitude Azimuth Distance (km) Brightness Sun altitude
Rises 04:45:36 0° 340° (NNW) 3,207 5.5 -8.2°
Reaches altitude 10° 04:49:07 10° 314° (NW) 2,302 4.6 -7.3°
Maximum altitude 04:51:28 13° 286° (WNW) 2,088 4.2 -6.8°
Drops below altitude 10° 04:53:50 10° 258° (WSW) 2,322 4.3 -6.2°
Sets 04:57:26 0° 232° (SW) 3,259 5.3 -5.3°
